Location: Bottenau
(48.5138°N, 8.0462°E)
Time: 19:47:35
(UTC+00:00)

Cosmos 2266 Rocket - Pass Details

Date: 18 April 2021
Orbit: 934 x 1008 km, 82.9° (Epoch: 18 May)

Event Time Altitude Azimuth Distance (km) Brightness Sun altitude
Rises 19:57:18 0° 354° (N) 3,747 7.7 -14.6°
Reaches altitude 10° 19:59:59 10° 360° (N) 2,788 6.9 -14.9°
Maximum altitude 20:06:10 49° 74° (ENE) 1,271 4.4 -15.7°
Enters shadow 20:09:47 24° 137° (SE) 1,923 4.9 -16.2°
